Tracking 18984 objects as of 24-Feb-2018
HD Live streaming from Space Station
objects crossing your sky now

FENGYUN 1C DEB

Track FENGYUN 1C DEB now!
10-day predictions


NORAD ID: 37920
Int'l Code: 1999-025ENV
Perigee: 821.8 km
Apogee: 916.7 km
Inclination: 99.0 °
Period: 102.2 minutes
Semi major axis: 7240 km
RCS: 0.0026 m2 (small)
Launch date: May 10, 1999
Source: People's Republic of China (PRC)
Launch site: Taiyaun Space Center, China (TSC)

Note: This is SATELLITE DEBRIS
aabbcc
Your satellite tracking list
Your tracking list is empty




NASA's NSSDC Master Catalog

Two Line Element Set (TLE):
1 37920U 99025ENV 18054.32232730 +.00000723 +00000-0 +43300-3 0  9991
2 37920 099.0274 094.2035 0065542 009.9072 049.0003 14.09198471238863
Source of the keplerian elements: AFSPC